Weather History for La Tuque, QC

Change the Weather History Date:

Saturday, July 27, 2013

  Actual Average Record
Temperature  
Mean Temperature 64 °F -  
Max Temperature 82 °F - - ()
Min Temperature 47 °F - - ()
Growing Degree Days 14 (Base 50)    
Moisture  
Dew Point 53 °F    
Average Humidity 72    
Maximum Humidity 100    
Minimum Humidity 31    
Precipitation  
Precipitation 0.00 in - - ()
Sea Level Pressure  
Sea Level Pressure 30.03 in    
Wind  
Wind Speed 2 mph ()    
Max Wind Speed 7 mph    
Max Gust Speed -    
T = Trace of Precipitation, MM = Missing Value Source: Averaged Metar Reports

Daily Weather History Graph

Daily Weather History Graph

Search for Another Location

Airport:

Trip Planner

Search our weather history database for the weather conditions in past years. The results will help you decide how hot, cold, wet, or windy it might be!

Date:

Astronomy

Jul. 27, 2013 Rise Set
Actual Time 5:23 AM EDT 8:31 PM EDT
Civil Twilight 4:46 AM EDT 9:07 PM EDT
Nautical Twilight 3:59 AM EDT 9:54 PM EDT
Astronomical Twilight 2:59 AM EDT 10:53 PM EDT
Moon 10:46 PM EDT (7/27) 11:29 AM EDT (7/27)
Length of Visible Light 16h 21m
Length of Day
15h 07m
Waning Gibbous, 71% of the Moon is Illuminated
Jul 27
Waning Gibbous
Jul 29
Last Quarter
Aug 6
New
Aug 14
First Quarter
Aug 20
Full

Hourly Weather History & Observations

Time (EDT) Temp. Dew Point Humidity Pressure Visibility Wind Dir Wind Speed Gust Speed Precip Events Conditions
12:00 AM 53.4 °F 52.2 °F 95% 30.06 in - SSW 1.2 mph - N/A   Unknown
1:00 AM 52.0 °F 51.4 °F 98% 30.06 in - North 1.2 mph - N/A   Unknown
2:00 AM 51 °F 51 °F 99% 30.05 in - SE 1.2 mph - -  
2:00 AM 51.1 °F 50.7 °F 99% 30.05 in - SE 1.2 mph - N/A   Unknown
3:00 AM 48.9 °F 48.6 °F 99% 30.04 in - ESE 1.2 mph - N/A   Unknown
4:00 AM 48.0 °F 47.8 °F 99% 30.04 in - Calm Calm - N/A   Unknown
5:00 AM 50.4 °F 50.4 °F 100% 30.05 in - SE 1.2 mph - N/A   Unknown
6:00 AM 51.6 °F 51.6 °F 100% 30.06 in - East 1.2 mph - N/A   Unknown
7:00 AM 53.1 °F 53.1 °F 100% 30.07 in - East 1.2 mph - N/A   Unknown
8:00 AM 54 °F 54 °F 100% 30.07 in - South 2.3 mph - -  
8:00 AM 54.1 °F 54.1 °F 100% 30.07 in - South 2.3 mph - N/A   Unknown
9:00 AM 58.5 °F 58.3 °F 99% 30.06 in - NNW 2.3 mph - N/A   Unknown
10:00 AM 64.2 °F 58.6 °F 82% 30.06 in - NW 3.5 mph - N/A   Unknown
11:00 AM 71.1 °F 57.9 °F 63% 30.04 in - NNW 3.5 mph - N/A   Unknown
12:00 PM 74.8 °F 55.6 °F 51% 30.03 in - NNE 3.5 mph - N/A   Unknown
1:00 PM 77.4 °F 52.7 °F 42% 30.01 in - South 3.5 mph - N/A   Unknown
2:00 PM 78 °F 53 °F 31% 30.00 in - WSW 3.5 mph - -  
2:00 PM 78.4 °F 52.7 °F 41% 30.00 in - WSW 3.5 mph - N/A   Unknown
3:00 PM 79.9 °F 47.8 °F 32% 29.99 in - SE 4.6 mph - N/A   Unknown
4:00 PM 80.6 °F 48.7 °F 33% 29.99 in - South 5.8 mph - N/A   Unknown
5:00 PM 81.5 °F 52.2 °F 36% 29.97 in - South 5.8 mph - N/A   Unknown
6:00 PM 79.0 °F 52.7 °F 40% 29.98 in - South 6.9 mph - N/A   Unknown
7:00 PM 75.4 °F 56.7 °F 52% 29.99 in - SSE 5.8 mph - N/A   Unknown
8:00 PM 72 °F 57 °F 49% 29.99 in - SSE 3.5 mph - -  
8:00 PM 72.1 °F 57.0 °F 59% 29.99 in - SSE 3.5 mph - N/A   Unknown
9:00 PM 68.9 °F 58.3 °F 69% 30.00 in - SSE 3.5 mph - N/A   Unknown
10:00 PM 65.1 °F 57.2 °F 75% 30.00 in - South 2.3 mph - N/A   Unknown
11:00 PM 61.9 °F 56.3 °F 82% 30.00 in - SSE 2.3 mph - N/A   Unknown